Regional Weather Roundup
Issued by NWS Lake Charles, LA

Current Version | Previous Version | Text Only | Print | Product List | Glossary On
Versions: 1 2 3 4 5 6 7 8 9 10 11 12 13 14 15 16 17 18 19 20 21 22 23 24 25 26 27
000
ASUS44 KLCH 272210
RWRLCH
REGIONAL WEATHER ROUNDUP
NATIONAL WEATHER SERVICE LAKE CHARLES LA
500 PM CDT FRI MAY 27 2016

Note: "fair" indicates few or no clouds below 12,000 feet with no
significant weather and/or obstructions to visibility.


ACROSS SOUTHEAST TEXAS

CITY           SKY/WX    TMP DP  RH WIND       PRES   REMARKS
BEAUMONT       CLOUDY    80  73  79 S9        29.84R
BEAUMONT CITY  CLOUDY    69  64  84 W9G18     29.88R
ORANGE         CLOUDY    79  73  83 S6        29.88R
JASPER         LGT RAIN  66  65  96 NE6       29.86F
$$

ACROSS CENTRAL LOUISIANA

CITY           SKY/WX    TMP DP  RH WIND       PRES   REMARKS
LEESVILLE      CLOUDY    69  67  93 NW8       29.88R
FULLERTON      CLOUDY    71  67  87 VRB3      29.86R
ALEXANDRIA INT CLOUDY    70  66  87 N17G25    29.89R
ESLER FIELD    LGT RAIN  75  68  78 W17G28    29.88R
DERIDDER       CLOUDY    75  74  95 W25       29.93R
OAKDALE        CLOUDY    80  71  71 SE6       29.86S
OPELOUSAS      FAIR      80  67  64 SE15      29.86F
$$

ACROSS SOUTHWEST AND SOUTH CENTRAL LOUISIANA

CITY           SKY/WX    TMP DP  RH WIND       PRES   REMARKS
SULPHUR        CLOUDY    82  72  73 SE16G25   29.86S
LAKE CHARLES   CLOUDY    81  72  74 S16G25    29.85R
CHENNAULT INT  CLOUDY    81  72  74 S14       29.85S
CAMERON PHI    MOCLDY    81  75  83 S18G26    29.87F
DEQUINCY       CLOUDY    78  71  78 S12G20    29.85R
JENNINGS       CLOUDY    81  70  69 SE17G26   29.85F
LAFAYETTE      MOSUNNY   82  67  60 S13G20    29.89S
NEW IBERIA     CLOUDY    82  69  64 S17G26    29.89F
ABBEVILLE      MOCLDY    80  71  73 SE15      29.89F
PATTERSON      CLOUDY    82  69  64 SE12      29.92R
SALT POINT       N/A     81  71  71 VRB5      29.90R
$$

SELECTED SITES ACROSS THE REGION

CITY           SKY/WX    TMP DP  RH WIND       PRES   REMARKS
HOUSTON BUSH   TSTM      67  66  97 S10       29.76F FOG
HOUSTON HOBBY  TSTM      70  64  83 N17G24    29.81R
GALVESTON      CLOUDY    82  77  84 SE17      29.81R
COLLEGE STAT   CLOUDY    66  65  96 E9        29.75R
CONROE         TSTM      68  66  93 E10       29.72F
HUNTSVILLE     CLOUDY    67  65  93 E5        29.76R
LUFKIN         LGT RAIN  67  66  97 E20G35    29.74F
SHREVEPORT     TSTM      68  66  93 SE14      29.77F FOG
MONROE         TSTM      70  69  97 W14       29.90R FOG
NATCHEZ MS     CLOUDY    82  66  57 SE17G28   29.87F
BATON ROUGE    CLOUDY    83  66  56 SE9G21    29.89S
N.O. INTL ARPT CLOUDY    84  68  58 SE13      29.91S
SLIDELL        MOSUNNY   82  66  58 SE10G22   29.92S
$$

MARINE REPORTS

STATION/POSITION TIME  SKY/WX   TEMP    WIND        PRES    VSBY
                                AIR SEA DIR/SP/G
                 (UTC)          (F)     (DEG/KT/KT) (MB)    (MI)
BUOY 30 S HIGH I 2150            81 80  150/ 12/ 14 1009.2R
WVE H/P(F/S)=  7/ 8

SEA RIM ST PARK  2200            80     160/ 15/ 18 1010.8R
PORT ARTHUR      2100               79  160/ 11/ 17 1010.1F
SABINE PASS N    2100            81 82  160/ 12/ 19 1011.6R
TEXAS POINT      NOT AVBL
CALCASIEU PASS   2100            80 81  170/ 19/ 24 1009.7S
LK CHARLES BEACH 2100            82 80              1011.0F
MARSH ISLAND     2100            80                   N/A
FRESH WATER LOCK 2100            80 82  130/ 12/ 16 1012.9R
AMERADA PASS     2100            81 78  120/  7/ 18 1012.0R
$$




USA.gov is the U.S. government's official web portal to all federal, state and local government web resources and services.